Torna al catalogo

SKIPPER

AttivoScienzaSSO
NORAD 23752·PAYLOAD·🇺🇸 United States

Lanciato Dec 28, 1995 da Baikonur Cosmodrome

Loading…

Prossimi Passaggi (prossime 24 ore)

TLE

AggiornatoSource: Space-Track

Epoca: Sep 13, 2026, 23:11 UTC

1 23752U 95072B   26256.96665058 -.00000002  00000-0  17958-4 0  9995
2 23752  98.7276 328.3702 0004739 217.4686 142.6164 14.26164135597998

Traccia SKIPPER in tempo reale con AllMySat

Download on the App Store